Weather History for Bemidji, MN

Change the Weather History Date:

Monday, May 13, 2013

  Actual Average Record
Temperature  
Mean Temperature 55 °F -  
Max Temperature 75 °F 63 °F 89 °F (1977)
Min Temperature 35 °F 37 °F 22 °F (1953)
Degree Days  
Heating Degree Days 10    
Growing Degree Days 5 (Base 50)    
Moisture  
Dew Point 30 °F    
Average Humidity 44    
Maximum Humidity 70    
Minimum Humidity 28    
Precipitation  
Precipitation 0.00 in - - ()
Sea Level Pressure  
Sea Level Pressure 29.82 in    
Wind  
Wind Speed 9 mph (SSE)    
Max Wind Speed 23 mph    
Max Gust Speed 30 mph    
Visibility 10 miles    
Events Rain    
Averages and records for this station are not official NWS values.
T = Trace of Precipitation, MM = Missing Value Source: NWS Daily Summary

Daily Weather History Graph

Daily Weather History Graph

Search for Another Location

Airport:

Trip Planner

Search our weather history database for the weather conditions in past years. The results will help you decide how hot, cold, wet, or windy it might be!

Date:

Astronomy

May. 13, 2013 Rise Set
Actual Time 5:44 AM CDT 8:48 PM CDT
Civil Twilight 5:08 AM CDT 9:24 PM CDT
Nautical Twilight 4:21 AM CDT 10:11 PM CDT
Astronomical Twilight 3:24 AM CDT 11:09 PM CDT
Moon 8:30 AM CDT (5/13) 11:57 PM CDT (5/13)
Length of Visible Light 16h 15m
Length of Day
15h 03m
Waxing Crescent, 12% of the Moon is Illuminated
May 13
Waxing Crescent
May 17
First Quarter
May 24
Full
May 31
Last Quarter
Jun 8
New

Hourly Weather History & Observations

Time (CDT) Temp. Windchill Dew Point Humidity Pressure Visibility Wind Dir Wind Speed Gust Speed Precip Events Conditions
12:13 AM 38.3 °F 33.2 °F 21.7 °F 51% 30.05 in 10.0 mi SE 6.9 mph - N/A   Clear
12:32 AM 39.0 °F 33.4 °F 21.0 °F 49% 30.05 in 10.0 mi SE 8.1 mph - N/A   Clear
12:52 AM 37.2 °F 31.9 °F 21.0 °F 52% 30.05 in 10.0 mi SE 6.9 mph - N/A   Clear
1:13 AM 37.2 °F 31.9 °F 20.7 °F 51% 30.05 in 10.0 mi SE 6.9 mph - N/A   Clear
1:32 AM 37.6 °F 31.0 °F 20.8 °F 51% 30.05 in 10.0 mi SSE 9.2 mph - N/A   Clear
1:52 AM 36.7 °F 30.5 °F 20.3 °F 52% 30.04 in 10.0 mi SE 8.1 mph - N/A   Clear
2:13 AM 36.1 °F 30.6 °F 20.5 °F 53% 30.04 in 10.0 mi SE 6.9 mph - N/A   Clear
2:32 AM 35.1 °F 29.3 °F 21.4 °F 57% 30.03 in 10.0 mi SE 6.9 mph - N/A   Clear
2:52 AM 37.0 °F 32.4 °F 20.1 °F 50% 30.02 in 10.0 mi SE 5.8 mph - N/A   Clear
3:13 AM 37.4 °F 32.1 °F 20.1 °F 50% 30.02 in 10.0 mi SE 6.9 mph - N/A   Clear
3:32 AM 37.2 °F 32.6 °F 20.3 °F 50% 30.02 in 10.0 mi SE 5.8 mph - N/A   Clear
3:52 AM 37.8 °F 32.5 °F 21.0 °F 51% 30.02 in 10.0 mi SE 6.9 mph - N/A   Clear
4:13 AM 38.3 °F 33.2 °F 20.5 °F 49% 30.01 in 10.0 mi SE 6.9 mph - N/A   Scattered Clouds
4:32 AM 38.3 °F 33.2 °F 20.7 °F 49% 30.00 in 10.0 mi SE 6.9 mph - N/A   Mostly Cloudy
4:52 AM 38.1 °F 32.9 °F 20.7 °F 49% 30.00 in 10.0 mi SE 6.9 mph - N/A   Mostly Cloudy
5:13 AM 37.6 °F 34.0 °F 21.6 °F 52% 30.00 in 10.0 mi SE 4.6 mph - N/A   Scattered Clouds
5:32 AM 37.9 °F 33.5 °F 21.7 °F 52% 30.00 in 10.0 mi SE 5.8 mph - N/A   Mostly Cloudy
5:52 AM 38.5 °F 34.1 °F 22.1 °F 52% 29.99 in 10.0 mi SE 5.8 mph - N/A   Overcast
6:12 AM 38.8 °F 35.4 °F 22.1 °F 51% 29.99 in 10.0 mi SE 4.6 mph - N/A   Mostly Cloudy
6:32 AM 39.4 °F 34.5 °F 22.6 °F 51% 29.98 in 10.0 mi SE 6.9 mph - N/A   Overcast
6:53 AM 40.1 °F 33.6 °F 21.9 °F 48% 29.97 in 10.0 mi SE 10.4 mph - N/A   Overcast
7:12 AM 40.3 °F 33.9 °F 21.6 °F 47% 29.96 in 10.0 mi SE 10.4 mph - N/A   Overcast
7:32 AM 41.0 °F 35.8 °F 22.1 °F 47% 29.95 in 10.0 mi SE 8.1 mph - N/A   Overcast
7:53 AM 42.1 °F 35.7 °F 20.5 °F 42% 29.95 in 10.0 mi SSE 11.5 mph - N/A   Overcast
8:12 AM 42.6 °F 36.8 °F 20.3 °F 41% 29.94 in 10.0 mi SSE 10.4 mph - N/A   Overcast
8:32 AM 43.3 °F 37.2 °F 20.3 °F 40% 29.92 in 10.0 mi SE 11.5 mph - N/A   Overcast
8:53 AM 43.7 °F 38.6 °F 21.4 °F 41% 29.91 in 10.0 mi SE 9.2 mph - N/A   Overcast
9:12 AM 43.0 °F 37.2 °F 25.2 °F 49% 29.90 in 10.0 mi SE 10.4 mph - N/A Rain Rain
9:32 AM 45.3 °F 40.1 °F 25.2 °F 45% 29.89 in 10.0 mi SSE 10.4 mph - N/A   Overcast
9:53 AM 47.1 °F - 24.4 °F 41% 29.88 in 10.0 mi SSE 15.0 mph 21.9 mph N/A   Mostly Cloudy
10:13 AM 49.3 °F - 25.7 °F 40% 29.87 in 10.0 mi SSE 16.1 mph 20.7 mph N/A   Scattered Clouds
10:32 AM 50.0 °F - 26.4 °F 40% 29.85 in 10.0 mi SE 16.1 mph - N/A   Scattered Clouds
10:52 AM 49.8 °F - 27.1 °F 41% 29.85 in 10.0 mi SSE 13.8 mph - N/A   Mostly Cloudy
11:12 AM 47.5 °F - 31.3 °F 53% 29.85 in 10.0 mi SSE 15.0 mph 18.4 mph N/A Rain Light Rain
11:32 AM 49.6 °F - 28.8 °F 45% 29.84 in 10.0 mi SSE 13.8 mph 19.6 mph N/A   Overcast
11:52 AM 52.5 °F - 29.1 °F 41% 29.82 in 10.0 mi SSE 15.0 mph 20.7 mph N/A   Mostly Cloudy
12:13 PM 56.3 °F - 29.7 °F 36% 29.81 in 10.0 mi SSE 23.0 mph 27.6 mph N/A   Scattered Clouds
12:32 PM 56.8 °F - 30.2 °F 36% 29.79 in 10.0 mi SSE 20.7 mph 27.6 mph N/A   Clear
12:52 PM 59.4 °F - 31.6 °F 35% 29.77 in 10.0 mi SSE 21.9 mph 26.5 mph N/A   Clear
1:13 PM 60.3 °F - 32.2 °F 35% 29.75 in 10.0 mi SSE 19.6 mph 29.9 mph N/A   Clear
1:32 PM 62.2 °F - 33.1 °F 34% 29.74 in 7.0 mi SSE 21.9 mph 27.6 mph N/A   Clear
1:52 PM 64.4 °F - 34.7 °F 33% 29.73 in 10.0 mi SSE 18.4 mph 29.9 mph N/A   Clear
2:13 PM 64.0 °F - 35.2 °F 34% 29.71 in 10.0 mi SSE 21.9 mph 25.3 mph N/A   Clear
2:32 PM 66.2 °F - 35.6 °F 32% 29.70 in 10.0 mi SSE 19.6 mph 27.6 mph N/A   Clear
3:32 PM 68.5 °F - 36.0 °F 30% 29.68 in 10.0 mi South 19.6 mph 27.6 mph N/A   Clear
3:52 PM 70.0 °F - 36.5 °F 29% 29.68 in 7.0 mi South 18.4 mph 26.5 mph N/A   Clear
4:13 PM 72.9 °F - 38.1 °F 28% 29.66 in 7.0 mi SSW 16.1 mph 26.5 mph N/A   Clear
4:32 PM 73.6 °F - 38.8 °F 28% 29.65 in 7.0 mi South 18.4 mph 24.2 mph N/A   Clear
4:52 PM 75.0 °F - 39.9 °F 28% 29.64 in 10.0 mi South 18.4 mph 25.3 mph N/A   Clear
5:13 PM 75.7 °F - 41.2 °F 29% 29.63 in 10.0 mi South 12.7 mph 25.3 mph N/A   Clear
5:32 PM 75.7 °F - 41.5 °F 29% 29.62 in 10.0 mi South 13.8 mph 20.7 mph N/A   Clear
5:52 PM 75.7 °F - 42.3 °F 30% 29.60 in 10.0 mi SSE 15.0 mph 20.7 mph N/A   Clear
6:32 PM 75.4 °F - 43.3 °F 32% 29.59 in 10.0 mi SSE 13.8 mph 20.7 mph N/A   Clear
7:12 PM 75.4 °F - 44.4 °F 33% 29.57 in 7.0 mi SSE 8.1 mph 21.9 mph N/A   Clear
7:32 PM 74.5 °F - 44.6 °F 34% 29.57 in 10.0 mi SSE 11.5 mph - N/A   Scattered Clouds
7:53 PM 67.8 °F - 40.6 °F 37% 29.59 in 10.0 mi ESE 12.7 mph - N/A   Scattered Clouds
8:12 PM 65.8 °F - 39.9 °F 39% 29.60 in 10.0 mi East 6.9 mph 10.4 mph N/A   Clear
8:32 PM 65.1 °F - 39.9 °F 40% 29.61 in 10.0 mi ESE 5.8 mph - N/A   Mostly Cloudy
8:53 PM 61.2 °F - 39.6 °F 45% 29.62 in 10.0 mi Calm Calm - N/A   Overcast
9:12 PM 61.9 °F - 39.7 °F 44% 29.63 in 7.0 mi SE 3.5 mph - N/A   Scattered Clouds
9:32 PM 58.1 °F - 39.4 °F 50% 29.63 in 7.0 mi Calm Calm - N/A   Clear
9:53 PM 56.5 °F - 39.0 °F 52% 29.64 in 10.0 mi Calm Calm - N/A   Clear
10:12 PM 53.6 °F - 38.8 °F 57% 29.64 in 10.0 mi Calm Calm - N/A   Clear
10:32 PM 53.2 °F - 38.7 °F 58% 29.65 in 10.0 mi Calm Calm - N/A   Clear
10:52 PM 49.6 °F - 38.5 °F 65% 29.65 in 10.0 mi Calm Calm - N/A   Clear
11:13 PM 50.0 °F - 38.3 °F 64% 29.64 in 10.0 mi Calm Calm - N/A   Clear
11:32 PM 48.7 °F - 37.8 °F 66% 29.64 in 10.0 mi Calm Calm - N/A   Clear
11:52 PM 47.3 °F - 37.9 °F 70% 29.64 in 10.0 mi Calm Calm - N/A   Clear